Regional Weather Roundup
Issued by NWS New Orleans/Baton Rouge, LA

Home | Current Version | Previous Version | Text Only | Print | Product List | Glossary On
Versions: 1 2 3 4 5 6 7 8 9 10 11 12 13 14 15 16 17 18 19 20 21 22 23 24 25 26 27
000
ASUS44 KLIX 051012
RWRLIX
NEW ORLEANS REGIONAL WEATHER ROUNDUP
NATIONAL WEATHER SERVICE NEW ORLEANS LA
500 AM CDT THU MAY 05 2016

NOTE: "FAIR" INDICATES FEW OR NO CLOUDS BELOW 12,000 FEET WITH NO
      SIGNIFICANT WEATHER AND/OR OBSTRUCTIONS TO VISIBILITY.
      SKY/WX - SKY CONDITION AND SIGNIFICANT WEATHER.
      TMP - AIR TEMPERATURE.     DP    - DEWPOINT TEMPERATURE.
      RH  - RELATIVE HUMIDITY.   PRES  - PRESSURE.
      HI  - HEAT INDEX.          WCI   - WIND CHILL INDEX.

*  THESE STATIONS ARE NOT NWS OR FAA STATIONS AND ARE NOT UNDER
   NWS QUALITY CONTROL.

LAZ038-040-048-061>063-065>067-069-051100-
SOUTHEAST LOUISIANA

CITY           SKY/WX    TMP DP  RH WIND       PRES   REMARKS
N.O. AUDUBON     N/A     65  58  80 MISG        N/A
N.O. INTL ARPT PTCLDY    63  56  78 W5        29.87R
N.O. LAKEFRONT PTCLDY    70  61  73 NW21      29.87R
N.O. DOWNTOWN*   N/A     67  56  67 CALM      29.88R
RESERVE*         N/A     63  58  84 NW5       29.88R
SLIDELL        CLEAR     63  54  72 N3        29.86R
BATON ROUGE    CLEAR     62  55  77 NW5       29.89R
BOOTHVILLE     CLEAR     68  59  73 W8        29.87R
BELLE CHASSE   CLEAR     59  57  93 W3        29.87R
BOGALUSA*        N/A     58  52  80 CALM      29.88R
GALLIANO*      SUNNY     67  62  83 W6        29.89R
NEW ROADS*       N/A     61  56  82 NW5       29.90R
GONZALES*        N/A     64  56  76 W3        29.88R
HAMMOND*       CLEAR     59  52  77 CALM      29.87R
HOUMA*           N/A     63  61  93 W6        29.89R
PORT FOURCHON* SUNNY     72  64  78 W13G21    29.90R

$$

MSZ070-080>082-051100-
SOUTHERN MISSISSIPPI

CITY           SKY/WX    TMP DP  RH WIND       PRES   REMARKS
MCCOMB         CLEAR     58  54  86 N7        29.88R
GULFPORT       CLEAR     60  52  74 W6        29.84R
BILOXI         CLEAR     62  55  77 NW5       29.84R
PASCAGOULA     CLEAR     58  52  80 CALM      29.84R

$$

COASTAL OBSERVATIONS
LAKE AND NEARSHORE STATIONS

STATION/POSITION TIME  TEMP    WIND        PRES    WAVE
                       AIR SEA DIR/SP/G            HT/PER
                 (UTC) (F)     (DEG/KT/KT) (MB)    (FT/S)
PASCAGOULA       0900   65     310/  8/ 12 1009.5
WAVELAND YACHT   0900   64 72  330/  9/ 13 1010.5
GRAND ISLE       0900   72 74  290/ 14/ 16 1011.1
SOUTHWEST PASS   0900          300/  8/ 15   N/A
NEW CANAL        0900   69 73  260/  8/ 11 1010.2
SHELL BEACH      0900   66 73  250/ 11/ 13 1010.6

OFFSHORE STATIONS

STATION/POSITION TIME  TEMP    WIND        PRES    WAVE
                       AIR SEA DIR/SP/G            HT/PER
                 (UTC) (F)     (DEG/KT/KT) (MB)    (FT/S)
64 S DAUPHIN ISL 0900   74 75  290/ 16/ 19 1010.4

$$





USA.gov is the U.S. government's official web portal to all federal, state and local government web resources and services.